Flag for U.S.A. Weather past 2 weeks in Jefferson City, Missouri, U.S.A.

Now
64 °F

Passing clouds.


Feels Like: 64 °F
Forecast: 58 / 78 °F
Wind: No wind

Location: Jefferson City Memorial Airport

Current Time: Sep 18, 2014 at 10:51:14 PM

Latest Report: Sep 18, 2014 at 9:53 PM


Visibility: 10 mi

Pressure: 30.01 "Hg

Humidity: 84%

Dew point: 59 °F

Location of Jefferson CityLocation

Historic Weather in Jefferson City — Graph

°F

Jefferson City temperature yesterday

Maximum temperature yesterday: 70 °F (at 1:53 PM)
Minimum temperature yesterday: 54 °F (at 12:53 AM)
Average temperature yesterday: 62 °F

Past Weeks' High & Low Weather Summary

 TemperatureHumidityPressure
High94 °F (Sep 4, 3:53 PM)97% (Sep 6, 11:53 PM)30.42 "Hg (Sep 6, 11:53 PM)
Low40 °F (Sep 13, 6:53 AM)36% (Sep 7, 3:53 PM)29.57 "Hg (Sep 10, 4:53 AM)
Average66 °F77%30.05 "Hg
* Reported Sep 3 8:53 PM — Sep 18 8:53 PM, Jefferson City, Weather by CustomWeather, © 2014

Note: Actual official high and low records may vary slightly from our data, if they occured in-between our weather recording intervals... More about our weather records

Advertising

Jefferson City weather history for previous 24 hours

 ConditionsComfort  
Time TempWeatherWind HumidityBarometerVisibility
8:53 PM
Sep 18
65 °FPassing clouds.No wind81%30.00 "Hg10 mi
7:53 PM66 °FMostly cloudy.No wind84%29.97 "Hg10 mi
6:53 PM70 °FScattered clouds.3 mph71%29.96 "Hg10 mi
5:53 PM73 °FSunny.5 mph59%29.96 "Hg10 mi
4:53 PM75 °FPartly sunny.8 mph55%29.96 "Hg10 mi
3:53 PM73 °FMostly cloudy.6 mph62%29.96 "Hg10 mi
2:53 PM74 °FScattered clouds.8 mph60%29.97 "Hg10 mi
1:53 PM70 °FOvercast.7 mph71%29.98 "Hg10 mi
12:53 PM68 °FOvercast.8 mph73%30.00 "Hg8 mi
11:53 AM66 °FOvercast.8 mph78%30.02 "Hg6 mi
10:53 AM64 °FOvercast.8 mph84%30.02 "Hg6 mi
9:53 AM62 °FFog.6 mph90%30.03 "Hg5 mi
8:53 AM61 °FFog.7 mph93%30.02 "Hg4 mi
8:00 AM61 °FFog.3 mph93%30.04 "Hg4 mi
6:53 AM61 °FFog.6 mph93%29.98 "Hg2 mi
5:53 AM61 °FFog.7 mph93%29.96 "Hg4 mi
4:53 AM61 °FFog.6 mph97%29.94 "Hg2 mi
3:53 AM62 °FLow clouds.3 mph93%29.94 "Hg7 mi
2:53 AM62 °FFog.7 mph96%29.93 "Hg4 mi
2:02 AM62 °FFog.6 mph96%29.97 "Hg2 mi
1:53 AM62 °FFog.6 mph96%29.93 "Hg2 mi
12:53 AM62 °FFog.5 mph96%29.95 "Hg3 mi
11:53 PM
Sep 17
62 °FFog.6 mph96%29.95 "Hg2 mi
11:02 PM63 °FFog.8 mph93%29.98 "Hg5 mi
10:53 PM63 °FFog.8 mph93%29.94 "Hg5 mi
Weather by CustomWeather, © 2014

See weather overviewHow to use our weather pages